COSMOS 1275 DEB, 12767

Orbit data source: Space-Track

COSMOS 1275 DEB, 12767 is space debris in LEO originally from a launch on Thu, 04 Jun 1981 UTC launched from the Plesetsk Missile And Space Complex (PKMTR). Debris objects in space refer to the collection of defunct objects orbiting the Earth. Examples of debris include non-operational satellites, rocket bodies, and fragments generated from explosions, collisions, or faulty payload assembly.

Loading next visibility...
Identifier
12767, 1981-053DL
Orbit
LEO
Country
Flag of CISCIS
Related business
Manufacturer
Unknown
Mission
Spacecraft
Bus & Motor
Unknown
Mass
Unknown
Launch date (UTC)
1981-06-04 (45 years ago)
Launch vehicle
Unknown
Launch site
Plesetsk Missile And Space Complex (PKMTR)
Object type
Payload
Rocket body
Debris
Shape & HBR
Unknown shape, 0.1 m
Radar Cross Section
Small (<0.1 m²)

Expand to show TLE details & history
Last TLE update: 10 hours ago

TLE from 10 hours ago
0 COSMOS 1275 DEB
1 12767U 81053DL  26119.58704909  .00000969  00000-0  52096-3 0  9990
2 12767  82.9568 154.9774 0044752 262.7926 226.7167 14.11490570284542
Epoch: 2026-04-29T14:05Z
TLE epoch observation values (Epoch: 2026-04-29T14:05:21.041Z)
Latitude
50.43254°
Longitude
-102.4597°
Altitude
884.616 km
Speed
7.403 km/s
True Right ascension
21h 45m 41s
True Declination
50° 15' 59"
Sunlit
Object was in daylight at epoch
Visualization orbit readout
Latitude
Unknown
Longitude
Unknown
Altitude
Unknown
Speed
Unknown
Apparent Right ascension
Unknown
Apparent Declination
Unknown
Sunlit
N/A
Visualization observer readout
Local Sidereal Time
07:47:36
Azimuth
Unknown
Elevation
Unknown
Doppler factor
Unknown
Orbital elements
Apogee altitude
883.727 km
Perigee altitude
819.02 km
Semi-major axis
7,229.51 km
Eccentricity
0.00448
Inclination
82.9568°
RAAN
154.9774°
Arg. of periapsis
262.7926°
True anomaly
226.34481°
Mean anomaly
226.7167°
Eccentric anomaly
226.53061°
Mean motion
3.53085 °/min
Orbital period
101.96 mins
BSTAR
0.00052096
Loading maneuver chart data...
Computing Atmospheric mass density...
Loading historical data...
Loading historical data...
Loading historical data...
Loading historical data...
Loading historical data...
Loading historical data...
Loading historical data...

Documentation

Showing up to 5 results
|